This demonstration page uses our WeatherBlox Daily Observations layout. Learn more.

Left ArrowRight Arrow

36.19886, -115.1175

Hourly Observations for December 6, 2018

Temp ( °F °C ) Dew Point ( °F °C ) Humidity (%) Winds ( mph kmh ) Pressure ( in mb ) Visibility ( mi km ) Precip ( " mm )
12:53 am 00:53 Cloudy 47 8.3 27 -2.8 46 46 NW 3 6 30.04 1017 10 16.0934 N/A
1:53 am 01:53 Cloudy 47 8.3 26 -3.3 44 44 N N/A 30.04 1017 10 16.0934 N/A
2:53 am 02:53 Cloudy 46 7.8 28 -2.2 50 50 N N/A 30.04 1017 10 16.0934 N/A
3:53 am 03:53 Cloudy 47 8.3 28 -2.2 48 48 N N/A 30.05 1018 10 16.0934 N/A
4:53 am 04:53 Cloudy 47 8.3 28 -2.2 48 48 N N/A 30.06 1018 10 16.0934 N/A
5:53 am 05:53 Mostly Cloudy 46 7.8 26 -3.3 46 46 N N/A 30.07 1018 10 16.0934 N/A
6:53 am 06:53 Cloudy 47 8.3 26 -3.3 44 44 N N/A 30.09 1019 10 16.0934 N/A
7:53 am 07:53 Cloudy 48 8.9 28 -2.2 46 46 N N/A 30.11 1020 10 16.0934 N/A
8:53 am 08:53 Cloudy 49 9.4 25 -3.9 39 39 N N/A 30.13 1020 10 16.0934 N/A
9:53 am 09:53 Cloudy 50 10 26 -3.3 39 39 S 5 7 30.15 1021 10 16.0934 N/A
10:53 am 10:53 Cloudy 51 10.6 27 -2.8 39 39 WSW 5 7 30.12 1020 10 16.0934 N/A
11:53 am 11:53 Cloudy 53 11.7 28 -2.2 38 38 SE 6 9 30.1 1019 10 16.0934 N/A
12:53 pm 12:53 Cloudy with Light Rain 52 11.1 33 0.6 49 49 SSE 13 20 30.1 1019 10 16.0934 N/A
1:53 pm 13:53 Cloudy 52 11.1 34 1.1 50 50 E 5 7 30.09 1019 10 16.0934 N/A
2:53 pm 14:53 Cloudy with Light Rain 51 10.6 37 2.8 59 59 ENE 8 13 30.09 1019 10 16.0934 N/A
3:53 pm 15:53 Cloudy 51 10.6 38 3.3 61 61 NNE 3 6 30.1 1019 10 16.0934 N/A
4:53 pm 16:53 Cloudy 50 10 39 3.9 66 66 SW 3 6 30.1 1019 10 16.0934 N/A
5:53 pm 17:53 Cloudy 50 10 39 3.9 66 66 W 5 7 30.11 1020 10 16.0934 N/A
6:53 pm 18:53 Cloudy 49 9.4 40 4.4 71 71 W 6 9 30.12 1020 10 16.0934 N/A
7:53 pm 19:53 Cloudy 49 9.4 41 5 74 74 W 5 7 30.12 1020 10 16.0934 N/A
8:53 pm 20:53 Cloudy 50 10 41 5 71 71 N N/A 30.12 1020 10 16.0934 N/A
9:53 pm 21:53 Cloudy with Light Rain 49 9.4 42 5.6 77 77 N N/A 30.13 1020 10 16.0934 N/A
10:53 pm 22:53 Cloudy 49 9.4 42 5.6 77 77 N N/A 30.13 1020 10 16.0934 N/A
11:53 pm 23:53 Cloudy 49 9.4 43 6.1 80 80 N N/A 30.12 1020 10 16.0934 N/A

Powered by AerisWeather